Location: La Comballaz
(46.3780°N, 7.0817°E)
Time: 23:24:00
(UTC+00:00)

ERBS - Pass Details

Date: 09 April 2020
Orbit: 410 x 426 km, 57.0° (Epoch: 24 May)

Event Time Altitude Azimuth Distance (km) Brightness Sun altitude
Rises 20:09:38 0° 309° (NW) 2,393 7.7 -19.3°
Reaches altitude 10° 20:11:44 10° 311° (NW) 1,525 6.3 -19.6°
Maximum altitude 20:15:09 78° 38° (NE) 441 2.2 -20.1°
Enters shadow 20:15:10 78° 43° (NE) 441 2.2 -20.1°
